When you browse on this site, cookies collect data to enhance your experience and personalize the content and advertising you see.
Visit our Privacy Policy to learn more. By continuing to use the site, you agree to this use of cookies and data.
  • In Lithuania
  • List of Countries
  • For 7 days
  • Water Temperature
  • Satellite Maps
  • Weather Map
  • Weather Widgets
  • user-avatar
    Login

    Hourly Weather Barany

    Today, 24 April, Wednesday

    Time Temperature Precipitation Wind Pressure Humidity
    00:00 +10°C° 0 mm 3 mps 756 mmHg 56%
    01:00 +9°C° 0 mm 3 mps 756 mmHg 58%
    02:00 +8°C° 0 mm 4 mps 755 mmHg 58%
    03:00 +8°C° 0 mm 4 mps 755 mmHg 60%
    04:00 +7°C° 0 mm 4 mps 755 mmHg 62%
    05:00 +7°C° 0 mm 4 mps 755 mmHg 63%
    06:00 +9°C° 0 mm 5 mps 755 mmHg 59%
    07:00 +10°C° 0 mm 6 mps 755 mmHg 55%
    08:00 +13°C° 0 mm 6 mps 755 mmHg 50%
    09:00 +14°C° 0 mm 7 mps 755 mmHg 45%
    10:00 +15°C° 0 mm 7 mps 755 mmHg 41%
    11:00 +17°C° 0 mm 8 mps 755 mmHg 37%
    12:00 +17°C° 0 mm 8 mps 755 mmHg 36%
    13:00 +18°C° 0 mm 8 mps 755 mmHg 35%
    14:00 +18°C° 0 mm 8 mps 755 mmHg 34%
    15:00 +18°C° 0 mm 7 mps 755 mmHg 35%
    16:00 +19°C° 0 mm 6 mps 754 mmHg 37%
    17:00 +19°C° 0 mm 6 mps 754 mmHg 38%
    18:00 +16°C° 0 mm 5 mps 754 mmHg 43%
    19:00 +14°C° 0 mm 5 mps 754 mmHg 47%
    20:00 +13°C° 0 mm 4 mps 754 mmHg 51%
    21:00 +12°C° 0 mm 4 mps 754 mmHg 52%
    22:00 +12°C° 0 mm 4 mps 754 mmHg 54%
    23:00 +11°C° 0 mm 4 mps 754 mmHg 55%

    Tomorrow, 25 April, Thursday

    Time Temperature Precipitation Wind Pressure Humidity
    00:00 +11°C° 0 mm 4 mps 754 mmHg 57%
    01:00 +10°C° 0 mm 4 mps 754 mmHg 58%
    02:00 +10°C° 0 mm 4 mps 754 mmHg 60%
    03:00 +10°C° 0 mm 4 mps 754 mmHg 61%
    04:00 +8°C° 0 mm 4 mps 753 mmHg 63%
    05:00 +8°C° 0 mm 5 mps 753 mmHg 64%
    06:00 +9°C° 0 mm 5 mps 753 mmHg 63%
    07:00 +10°C° 0 mm 5 mps 753 mmHg 61%
    08:00 +11°C° 0 mm 6 mps 753 mmHg 60%
    09:00 +14°C° 0 mm 6 mps 753 mmHg 57%
    10:00 +16°C° 0 mm 6 mps 753 mmHg 54%
    11:00 +17°C° 0 mm 6 mps 753 mmHg 51%
    12:00 +19°C° 0 mm 6 mps 752 mmHg 50%
    13:00 +20°C° 0 mm 6 mps 752 mmHg 48%
    14:00 +21°C° 0 mm 6 mps 752 mmHg 46%
    15:00 +21°C° 0 mm 6 mps 751 mmHg 47%
    16:00 +21°C° 0 mm 5 mps 751 mmHg 48%
    17:00 +21°C° 0 mm 5 mps 751 mmHg 49%
    18:00 +20°C° 0 mm 5 mps 751 mmHg 54%
    19:00 +18°C° 0 mm 4 mps 751 mmHg 59%
    20:00 +15°C° 0 mm 4 mps 751 mmHg 64%
    21:00 +14°C° 0 mm 4 mps 750 mmHg 66%
    22:00 +14°C° 0 mm 4 mps 750 mmHg 68%
    23:00 +13°C° 0 mm 4 mps 750 mmHg 70%

    Day after tomorrow, 26 April, Friday

    Time Temperature Precipitation Wind Pressure Humidity
    00:00 +13°C° 0 mm 4 mps 750 mmHg 73%
    01:00 +12°C° 0 mm 4 mps 750 mmHg 76%
    02:00 +11°C° 0 mm 3 mps 750 mmHg 78%
    03:00 +11°C° 0.1 mm 3 mps 750 mmHg 81%
    04:00 +11°C° 0.1 mm 3 mps 749 mmHg 84%
    05:00 +10°C° 0.1 mm 3 mps 749 mmHg 86%
    06:00 +11°C° 0 mm 4 mps 749 mmHg 82%
    07:00 +13°C° 0 mm 4 mps 749 mmHg 79%
    08:00 +14°C° 0 mm 4 mps 749 mmHg 75%
    09:00 +16°C° 0 mm 5 mps 748 mmHg 70%
    10:00 +19°C° 0 mm 5 mps 748 mmHg 66%
    11:00 +21°C° 0 mm 5 mps 748 mmHg 61%
    12:00 +22°C° 0.5 mm 6 mps 748 mmHg 60%
    13:00 +22°C° 0.5 mm 6 mps 747 mmHg 58%
    14:00 +23°C° 0.5 mm 6 mps 747 mmHg 56%
    15:00 +23°C° 0.5 mm 6 mps 746 mmHg 58%
    16:00 +22°C° 0.5 mm 5 mps 746 mmHg 60%
    17:00 +22°C° 0.5 mm 5 mps 745 mmHg 61%
    18:00 +21°C° 0.7 mm 4 mps 745 mmHg 68%
    19:00 +19°C° 0.7 mm 4 mps 745 mmHg 75%
    20:00 +18°C° 0.7 mm 3 mps 745 mmHg 82%
    21:00 +17°C° 1.1 mm 4 mps 744 mmHg 84%
    22:00 +15°C° 1.1 mm 4 mps 744 mmHg 86%
    23:00 +15°C° 1.1 mm 4 mps 744 mmHg 89%

    27 April, Saturday

    Time Temperature Precipitation Wind Pressure Humidity
    00:00 +15°C° 0 mm 4 mps 744 mmHg 91%
    01:00 +14°C° 0 mm 4 mps 743 mmHg 92%
    02:00 +14°C° 0 mm 4 mps 743 mmHg 94%
    03:00 +13°C° 0 mm 3 mps 743 mmHg 95%
    04:00 +13°C° 0 mm 3 mps 743 mmHg 96%
    05:00 +13°C° 0 mm 3 mps 743 mmHg 96%
    06:00 +14°C° 0 mm 3 mps 743 mmHg 92%
    07:00 +16°C° 0 mm 3 mps 742 mmHg 87%
    08:00 +18°C° 0 mm 3 mps 742 mmHg 82%
    09:00 +19°C° 0 mm 4 mps 742 mmHg 75%
    10:00 +21°C° 0 mm 4 mps 742 mmHg 68%
    11:00 +23°C° 0 mm 4 mps 742 mmHg 61%
    12:00 +25°C° 0.1 mm 5 mps 742 mmHg 57%
    13:00 +25°C° 0.1 mm 5 mps 742 mmHg 54%
    14:00 +26°C° 0.1 mm 6 mps 742 mmHg 51%
    15:00 +24°C° 0 mm 6 mps 742 mmHg 53%
    16:00 +25°C° 0 mm 5 mps 742 mmHg 55%
    17:00 +23°C° 0 mm 5 mps 742 mmHg 57%
    18:00 +21°C° 0 mm 4 mps 742 mmHg 64%
    19:00 +19°C° 0 mm 3 mps 742 mmHg 71%
    20:00 +17°C° 0 mm 2 mps 742 mmHg 78%
    21:00 +17°C° 0 mm 2 mps 742 mmHg 81%
    22:00 +16°C° 0 mm 2 mps 742 mmHg 84%
    23:00 +15°C° 0 mm 2 mps 742 mmHg 87%

    28 April, Sunday

    Time Temperature Precipitation Wind Pressure Humidity
    00:00 +14°C° 0 mm 2 mps 742 mmHg 89%
    01:00 +14°C° 0 mm 1 mps 742 mmHg 91%
    02:00 +13°C° 0 mm 1 mps 742 mmHg 93%
    03:00 +13°C° 0 mm 1 mps 742 mmHg 94%
    04:00 +13°C° 0 mm 1 mps 742 mmHg 94%
    05:00 +12°C° 0 mm 1 mps 742 mmHg 95%
    06:00 +14°C° 0 mm 1 mps 743 mmHg 90%
    07:00 +15°C° 0 mm 1 mps 743 mmHg 84%
    08:00 +16°C° 0 mm 1 mps 743 mmHg 78%
    09:00 +19°C° 0 mm 1 mps 743 mmHg 72%
    10:00 +21°C° 0 mm 1 mps 744 mmHg 66%
    11:00 +22°C° 0 mm 1 mps 744 mmHg 60%
    12:00 +23°C° 0 mm 2 mps 744 mmHg 60%
    13:00 +23°C° 0 mm 2 mps 743 mmHg 60%
    14:00 +22°C° 0 mm 3 mps 743 mmHg 60%
    15:00 +22°C° 0 mm 3 mps 743 mmHg 61%
    16:00 +22°C° 0 mm 3 mps 743 mmHg 62%
    17:00 +22°C° 0 mm 4 mps 743 mmHg 63%
    18:00 +20°C° 1.7 mm 4 mps 743 mmHg 71%
    19:00 +19°C° 1.7 mm 4 mps 744 mmHg 79%
    20:00 +17°C° 1.7 mm 3 mps 744 mmHg 87%
    21:00 +17°C° 0.5 mm 4 mps 744 mmHg 88%
    22:00 +15°C° 0.5 mm 4 mps 745 mmHg 90%
    23:00 +15°C° 0.5 mm 4 mps 745 mmHg 91%

    29 April, Monday

    Time Temperature Precipitation Wind Pressure Humidity
    00:00 +14°C° 0.1 mm 5 mps 745 mmHg 90%
    01:00 +13°C° 0.1 mm 6 mps 746 mmHg 88%
    02:00 +11°C° 0.1 mm 7 mps 746 mmHg 87%
    03:00 +10°C° 0.1 mm 7 mps 746 mmHg 87%
    04:00 +10°C° 0.1 mm 6 mps 747 mmHg 86%
    05:00 +9°C° 0.1 mm 6 mps 747 mmHg 85%
    06:00 +9°C° 0 mm 6 mps 748 mmHg 83%
    07:00 +8°C° 0 mm 7 mps 748 mmHg 80%
    08:00 +8°C° 0 mm 7 mps 748 mmHg 78%
    09:00 +10°C° 0 mm 7 mps 749 mmHg 72%
    10:00 +11°C° 0 mm 7 mps 749 mmHg 67%
    11:00 +12°C° 0 mm 7 mps 749 mmHg 61%
    12:00 +14°C° 0 mm 7 mps 750 mmHg 59%
    13:00 +15°C° 0 mm 7 mps 750 mmHg 56%
    14:00 +15°C° 0 mm 7 mps 750 mmHg 54%
    15:00 +15°C° 0 mm 6 mps 750 mmHg 53%
    16:00 +15°C° 0 mm 6 mps 750 mmHg 53%
    17:00 +14°C° 0 mm 6 mps 750 mmHg 52%
    18:00 +13°C° 0 mm 5 mps 750 mmHg 54%
    19:00 +10°C° 0 mm 5 mps 750 mmHg 56%
    20:00 +10°C° 0 mm 4 mps 751 mmHg 58%
    21:00 +8°C° 0 mm 4 mps 751 mmHg 59%
    22:00 +7°C° 0 mm 4 mps 751 mmHg 61%
    23:00 +7°C° 0 mm 4 mps 752 mmHg 63%
    Show more